Wind_Speed
14 15 13 9 9 10 14 19 19 18 17 15 18 16 9 12 18 18 16 14 10 7 4 2 4 7 8 9 9 7 7 7 7 9 10 11 11 11 11 11 10 10 10 13 16 18 17 16 15 15 15 15 15 14 14 12 11 10 9 9 9 9 9 10 10 10 10 10 10 11 11 11 11 11
14 13 12 9 9 10 12 17 18 17 18 15 17 19 13 9 10 12 15 16 12 8 7 5 1 3 7 10 10 8 7 7 8 9 9 9 10 10 10 10 11 12 14 17 19 20 20 17 15 15 15 16 16 17 17 15 12 11 10 10 10 10 10 11 11 12 12 12 12 12 12 12 13 13
14 14 13 11 12 12 13 16 17 17 18 15 15 19 19 14 11 9 11 13 12 10 8 6 2 1 5 8 8 8 7 6 7 9 9 9 8 8 7 8 10 13 16 19 20 21 21 19 16 16 17 19 19 20 20 18 15 11 10 10 10 10 10 10 11 12 13 13 14 14 14 14 14 14
15 15 15 14 15 16 16 17 18 17 16 13 11 15 19 19 16 14 11 8 9 10 7 6 4 2 4 5 5 6 6 5 6 7 8 7 6 5 4 5 8 12 15 17 19 20 21 20 19 19 21 23 23 23 23 22 19 13 10 10 11 10 10 10 11 12 12 13 14 15 15 15 15 15
16 17 18 18 16 16 17 17 15 14 13 11 10 9 15 21 21 17 12 8 8 10 8 7 5 3 4 3 3 3 3 3 4 5 6 5 4 2 2 5 7 11 13 16 18 20 21 20 20 21 24 25 26 26 26 25 23 18 14 13 13 12 11 11 12 12 12 13 14 15 16 16 16 16
16 18 20 20 17 16 16 16 14 12 12 13 12 8 11 20 21 15 10 8 8 9 8 8 6 5 5 3 2 3 2 2 2 2 3 3 2 1 2 5 8 10 13 15 18 21 21 21 21 22 24 26 27 28 28 28 24 19 16 16 15 15 14 14 14 14 14 14 14 15 16 17 17 17
16 18 20 20 18 16 16 15 14 12 11 12 13 10 11 16 18 14 10 8 8 9 8 8 8 6 5 5 4 3 2 1 4 3 2 2 3 4 4 7 9 10 13 15 18 21 22 22 22 23 25 27 28 29 29 27 24 19 17 16 16 16 16 17 18 18 17 17 17 18 17 17 17 17
15 17 18 19 18 17 16 16 16 14 12 11 11 11 11 13 13 12 10 8 8 8 7 7 8 7 5 4 4 3 4 4 6 7 5 5 6 6 7 8 10 11 13 16 18 21 23 24 24 24 26 28 28 28 27 25 22 19 18 17 16 15 16 18 19 20 20 21 22 22 21 19 17 17
14 14 16 17 18 18 18 17 17 15 13 11 12 12 11 10 9 9 10 9 8 8 7 7 8 9 7 6 5 5 6 7 7 8 8 8 8 8 9 10 12 13 15 16 18 21 22 24 25 25 27 29 29 27 25 23 21 19 17 16 15 15 16 18 18 19 20 22 24 25 24 22 20 17
14 13 14 15 17 18 17 16 16 16 14 13 14 14 13 11 9 10 10 11 10 9 8 8 9 10 9 7 7 7 8 9 9 9 9 9 9 10 11 12 14 15 16 18 19 19 21 24 25 26 28 29 29 26 23 19 16 15 14 14 15 16 17 17 17 18 20 21 24 25 23 22 22 21
15 15 14 15 16 17 17 17 17 17 17 16 16 16 15 13 12 12 12 12 12 11 9 9 10 10 9 8 8 9 10 10 10 10 11 11 11 11 13 14 15 16 18 20 20 19 20 23 26 28 30 29 27 26 24 20 17 15 14 15 16 17 16 16 17 18 19 21 23 23 21 21 22 23
16 16 16 16 16 16 17 19 19 19 19 18 19 19 18 17 16 15 14 14 13 12 11 11 11 11 10 9 10 11 11 12 12 12 12 12 13 14 15 16 17 18 19 20 20 20 22 24 27 29 28 26 26 26 24 22 20 19 18 17 17 16 17 17 18 19 20 21 21 19 19 20 21 22
17 16 16 16 15 15 16 18 20 21 21 20 20 21 21 19 18 18 17 16 15 14 13 13 13 13 13 13 13 14 14 14 15 15 14 15 16 17 17 18 18 19 20 21 21 22 24 27 29 29 27 26 25 23 21 20 19 19 19 18 18 19 19 19 20 20 20 20 19 18 19 20 21 21
18 17 17 16 15 14 15 16 18 19 20 21 21 21 22 21 20 19 18 18 18 18 17 16 16 16 16 16 16 16 16 17 17 18 18 18 19 19 19 19 19 20 21 22 23 24 27 28 28 26 26 24 23 21 20 19 18 18 19 19 21 22 23 23 23 23 23 22 21 22 22 22 21 22
21 20 19 18 17 16 15 15 15 16 18 20 21 21 22 22 21 21 20 20 20 20 20 20 19 19 19 19 18 17 17 17 17 18 19 20 21 21 20 20 19 20 23 24 25 26 27 26 24 22 22 22 21 21 20 19 20 20 22 23 24 25 25 26 26 26 26 26 26 26 25 23 22 22
23 23 22 21 20 19 19 18 17 17 18 19 20 21 21 22 23 23 22 22 22 22 21 21 21 20 20 20 19 18 18 17 16 16 18 19 20 20 20 19 20 22 25 25 25 25 25 24 22 20 20 20 20 21 22 22 23 24 25 26 26 27 27 27 27 27 27 27 26 26 25 24 23 22
24 24 24 24 23 23 22 22 21 21 21 21 21 21 21 22 24 24 25 25 24 24 23 22 22 21 21 21 20 19 18 17 17 17 17 18 19 19 19 20 21 24 26 25 24 23 23 22 21 20 20 20 19 21 23 25 26 26 27 27 28 29 29 29 29 27 25 24 23 24 24 24 24 23
24 25 25 26 27 26 26 26 25 25 25 25 24 23 23 24 25 26 26 26 26 25 24 24 23 22 22 21 20 18 18 18 18 18 18 19 20 20 20 21 22 24 25 24 23 22 21 22 21 20 20 19 19 22 24 26 27 28 28 27 27 27 27 28 27 26 25 24 23 24 24 25 25 25
26 27 27 28 28 28 29 30 29 29 28 27 27 27 27 27 27 28 28 27 25 25 24 24 23 22 22 21 21 20 19 19 19 20 20 20 21 20 20 21 21 21 23 23 22 21 21 22 21 19 19 19 20 23 26 27 27 27 25 24 23 22 24 25 26 26 26 25 25 25 26 27 27 27
30 30 31 32 31 30 31 31 30 30 29 27 28 29 29 27 28 28 28 26 23 23 24 23 23 22 23 22 22 21 20 20 21 21 21 20 20 19 20 20 19 19 22 22 22 21 20 21 21 21 21 22 23 25 26 26 26 25 25 25 25 26 27 28 28 29 29 28 28 28 28 28 28 26
33 33 34 36 35 32 30 30 31 32 30 28 29 30 28 26 26 26 25 24 22 21 22 23 23 22 21 20 20 20 20 20 20 20 20 19 19 19 19 19 18 19 21 22 21 20 21 22 24 24 24 24 25 26 26 25 26 27 28 29 29 29 29 28 28 28 28 27 27 27 28 28 27 25
35 35 36 38 36 33 32 32 32 33 32 31 31 29 26 25 26 25 24 24 23 22 21 22 21 19 17 17 17 18 18 18 19 19 18 18 19 19 19 18 18 19 21 21 21 21 22 23 25 26 26 26 25 25 25 27 29 30 30 30 28 26 23 22 22 21 21 21 21 22 24 24 23 22
35 36 37 38 38 38 36 34 33 33 32 32 32 30 28 28 28 26 25 24 23 22 20 19 17 16 16 16 15 14 15 16 16 17 17 17 18 18 18 18 18 19 21 22 22 22 23 24 25 26 27 27 26 26 27 29 30 30 28 26 23 20 18 17 16 14 13 13 14 16 17 17 18 18
34 34 35 35 36 37 36 33 32 32 32 32 34 34 32 32 30 26 23 23 21 20 18 16 15 15 15 14 12 12 13 13 14 16 17 17 18 17 17 18 20 21 22 23 24 23 23 24 25 25 26 26 26 28 29 30 29 27 24 21 18 16 15 13 11 8 8 9 10 12 13 13 14 16
32 33 32 32 32 34 34 33 33 33 34 35 36 33 30 27 25 22 22 23 21 18 16 16 15 14 12 11 10 11 11 13 14 16 16 16 16 17 18 20 21 22 22 23 24 23 23 24 25 26 27 27 27 28 29 29 27 24 20 17 15 13 13 11 9 7 7 8 9 11 12 12 13 16
32 32 30 29 30 32 33 35 36 37 37 38 38 35 29 22 19 19 21 21 19 17 16 15 13 11 10 10 10 11 12 14 15 16 15 15 17 19 21 22 22 22 22 22 23 23 23 24 25 26 27 27 27 27 27 27 25 21 16 14 14 12 12 12 10 9 9 10 11 12 12 12 14 15
31 30 29 28 29 30 31 34 36 38 39 39 39 36 28 21 20 20 20 19 17 16 15 13 11 10 10 10 11 12 14 15 15 15 16 17 19 21 22 22 22 21 20 20 21 22 23 25 26 26 25 25 25 25 25 25 24 19 15 13 13 12 13 13 12 12 12 12 13 14 15 15 16 16
30 29 28 27 27 28 29 30 31 33 35 36 33 28 24 23 22 22 20 19 18 16 14 12 11 11 12 13 13 14 14 15 15 16 18 19 20 21 21 21 21 20 20 20 21 23 25 26 25 24 23 22 21 21 22 23 23 20 17 16 15 13 13 13 13 14 15 14 15 16 18 19 20 20
31 30 28 27 27 27 26 25 25 27 28 28 26 25 25 25 25 22 20 19 17 15 13 12 12 12 13 13 13 13 14 15 16 17 19 19 20 20 20 20 20 20 21 22 23 24 25 25 23 22 21 19 19 19 20 22 21 19 18 20 19 16 14 13 14 15 15 16 17 18 20 22 24 24
32 31 28 26 27 25 23 22 22 23 24 24 25 25 26 27 25 22 20 18 16 14 12 12 11 11 11 12 12 13 14 15 17 18 19 20 21 21 20 20 21 22 22 23 24 24 23 22 21 21 21 20 19 19 19 21 21 19 18 20 21 19 15 13 14 15 16 17 19 20 22 23 24 25
33 31 29 26 24 22 21 21 22 23 24 24 24 25 27 27 25 23 20 17 15 13 12 11 10 10 11 12 13 14 15 16 18 20 21 21 21 21 21 20 20 20 21 21 22 21 21 20 19 19 19 19 19 19 18 19 20 20 19 19 20 19 17 16 15 15 17 19 21 21 21 21 22 22
35 32 29 26 24 23 24 26 26 26 26 26 26 27 28 26 24 22 20 16 14 13 12 10 10 11 11 13 14 16 17 18 20 21 21 20 18 18 17 17 18 18 18 19 20 19 18 18 17 15 15 16 17 19 19 18 19 19 20 19 19 18 18 17 17 16 18 19 19 19 19 19 19 19
38 34 31 29 27 27 30 31 30 30 30 30 29 28 27 25 23 21 18 16 14 13 12 12 12 12 12 14 15 16 17 19 19 18 17 15 14 14 14 15 16 17 18 18 18 17 16 15 13 12 11 13 15 17 19 19 18 17 18 19 19 19 17 16 16 17 17 17 18 19 18 17 17 15
39 36 33 31 30 31 33 34 34 34 34 32 30 27 25 24 22 19 16 15 14 14 13 12 12 12 13 15 15 16 16 16 14 13 13 12 12 12 13 14 16 17 18 18 17 15 14 12 11 11 10 11 13 13 15 17 16 15 16 17 17 18 17 15 15 14 15 16 19 21 20 18 16 13
36 35 32 32 32 32 34 37 38 38 36 33 30 27 25 22 19 17 15 15 13 12 12 11 12 13 14 14 14 14 12 10 10 10 11 11 11 12 14 15 16 17 18 18 15 12 11 11 13 14 13 13 13 10 8 10 13 15 16 16 16 16 16 15 14 13 14 16 19 20 21 20 17 13
30 34 35 35 36 37 39 41 41 39 36 33 30 28 26 22 17 15 14 13 12 11 11 12 13 13 13 13 12 10 8 8 9 10 10 10 12 13 14 16 18 19 18 16 14 11 10 10 12 14 16 17 17 14 10 9 10 13 16 16 15 15 16 15 14 13 13 15 17 19 21 21 18 14
22 29 34 36 38 39 39 39 37 34 32 31 29 26 22 18 15 14 13 12 12 12 11 11 12 13 13 11 9 7 7 8 9 9 10 11 12 14 16 18 18 17 15 13 11 10 9 10 11 13 14 17 20 21 19 14 9 9 13 16 14 13 15 16 15 13 13 15 17 18 19 20 18 15
18 25 31 34 36 35 32 31 31 30 28 26 24 21 17 15 14 15 14 12 11 9 9 10 11 11 11 9 7 7 7 8 8 10 11 12 13 16 17 17 16 14 12 10 8 8 9 10 11 12 14 16 18 21 22 19 13 9 8 13 13 12 13 15 14 13 15 17 18 19 18 18 17 15
18 23 28 33 36 33 30 29 29 29 26 22 20 18 17 16 15 15 13 11 9 8 9 10 11 10 9 8 7 6 6 8 9 10 12 13 14 15 15 14 12 11 11 9 6 6 8 10 11 12 13 15 17 18 20 21 17 11 5 9 11 11 11 11 12 14 17 19 19 18 16 13 13 13
19 22 26 31 33 33 32 28 26 25 23 20 18 17 18 17 16 14 12 11 10 10 10 11 10 10 9 7 5 5 6 9 10 11 12 13 13 12 12 11 9 9 9 8 7 8 9 10 11 13 14 16 17 18 18 19 16 10 5 7 8 8 7 9 12 15 18 19 19 17 15 11 9 9
19 21 25 27 30 34 32 26 21 20 19 19 18 18 17 15 13 12 12 12 13 12 11 11 10 10 8 6 4 5 7 10 11 11 11 10 10 10 10 9 8 7 8 8 9 10 11 11 12 13 14 16 17 17 16 16 13 7 3 4 4 4 6 9 13 15 17 18 16 14 13 11 9 8
21 22 23 25 29 33 30 25 22 20 18 19 19 17 15 14 13 13 14 16 15 13 11 10 10 8 6 4 4 6 8 9 10 10 10 9 8 8 9 9 8 7 7 8 9 11 11 12 13 13 13 14 15 15 15 14 10 4 1 1 2 5 8 11 13 15 15 15 13 12 12 12 10 10
20 22 23 24 26 26 24 22 22 20 19 20 19 17 16 16 16 17 18 17 14 11 10 10 8 6 4 3 4 6 8 9 10 10 10 9 8 7 8 9 8 7 7 9 10 10 12 14 13 12 11 13 13 14 14 11 5 2 1 2 3 6 9 11 12 13 13 11 11 12 12 11 13 14
18 18 19 20 20 21 21 21 22 22 23 23 21 19 18 19 19 18 17 14 11 10 9 8 6 4 3 3 5 6 8 9 10 10 8 7 6 7 8 8 8 8 8 10 10 10 12 14 12 10 11 12 13 13 12 7 2 1 2 3 5 8 11 11 10 11 10 9 10 10 9 9 11 14
15 14 15 17 20 22 23 23 25 25 25 23 20 18 18 18 18 17 15 12 10 9 8 5 3 3 3 4 5 6 8 8 8 7 6 6 6 6 7 8 8 8 8 10 11 11 12 12 11 10 10 10 10 11 9 5 3 3 3 4 6 10 10 9 8 9 9 9 9 9 9 8 10 13
Wind_Direction
154 153 158 165 169 177 185 187 191 190 184 179 175 175 178 171 170 178 190 198 200 188 183 166 113 104 102 95 88 94 103 96 92 100 99 85 73 70 70 70 66 57 47 34 25 24 29 37 42 40 34 28 26 23 21 17 10 2 354 347 341 335 330 328 325 323 323 321 320 319 315 312 308 302
163 165 171 167 156 162 172 178 186 190 187 184 182 183 190 191 187 185 187 197 202 191 189 195 155 111 117 101 87 92 103 102 94 94 94 81 67 60 58 58 54 48 38 28 21 17 16 24 35 34 28 25 23 21 19 17 13 7 1 354 349 342 335 330 325 321 318 314 312 309 306 304 301 299
173 176 178 168 150 149 157 162 168 180 187 189 193 196 197 202 218 212 192 195 198 195 200 204 212 170 135 113 95 90 92 100 97 89 88 80 66 58 50 44 38 33 29 23 20 15 9 11 17 16 14 13 12 12 12 11 8 5 2 358 353 347 339 333 327 323 319 316 312 308 304 301 298 296
181 181 178 170 157 150 149 150 153 164 175 181 185 196 201 205 212 211 207 209 199 191 204 222 228 195 137 117 110 99 80 85 99 94 91 84 73 67 43 24 20 20 19 17 15 11 5 4 5 4 3 1 360 0 2 1 358 354 352 353 353 348 340 333 327 322 318 315 312 309 305 302 299 297
184 183 175 169 164 162 161 161 163 169 179 187 185 188 201 205 207 211 216 219 203 193 201 220 219 169 134 118 117 123 84 59 86 102 101 93 91 102 2 1 4 6 7 7 7 5 1 359 357 357 356 354 352 351 352 352 350 345 341 343 346 346 341 334 328 323 318 314 310 308 306 303 300 298
176 179 177 172 169 172 179 182 188 194 198 203 204 197 199 201 203 208 212 211 205 200 201 208 204 170 148 141 121 135 132 33 38 111 123 127 156 237 321 343 349 352 355 356 357 357 356 354 352 351 349 348 346 345 345 345 344 341 337 336 338 339 338 335 332 328 323 319 315 311 308 305 303 300
165 173 179 180 179 182 191 197 199 199 199 204 205 197 192 195 197 202 210 217 210 198 193 202 206 195 165 151 140 142 162 260 282 268 239 240 265 293 315 324 333 337 340 344 347 347 347 347 346 344 342 342 341 340 339 339 338 335 331 331 332 332 333 334 333 332 330 326 323 319 316 312 307 302
158 166 176 182 185 190 198 200 198 195 196 200 198 190 188 195 201 207 212 220 220 208 198 192 200 206 196 173 171 179 195 228 257 264 272 282 286 295 302 307 315 321 327 333 336 337 339 339 338 337 336 336 335 335 335 334 332 328 325 324 325 327 330 331 332 332 331 331 330 328 325 322 316 309
160 162 171 177 181 187 194 197 201 202 201 199 195 194 195 200 214 217 207 205 216 220 208 187 187 202 208 206 210 217 217 226 243 262 277 285 285 286 289 295 303 310 317 322 325 328 330 330 330 331 330 330 330 332 333 331 327 322 320 320 321 323 326 327 328 329 329 329 330 332 331 329 326 322
175 174 177 181 184 190 197 203 207 207 204 201 199 199 201 206 220 221 206 201 209 217 217 207 201 208 215 221 228 226 223 230 245 265 280 281 278 279 282 287 295 301 307 312 315 319 321 322 324 325 325 326 327 329 330 328 323 318 316 316 317 319 321 322 323 325 325 327 329 332 332 331 330 328
191 192 193 197 198 201 207 212 214 211 208 208 206 206 209 210 211 213 210 208 208 211 218 219 217 221 224 227 233 232 228 236 249 262 272 274 269 269 274 280 287 293 298 303 307 310 313 315 317 319 322 323 322 322 321 318 314 308 306 307 310 314 317 318 319 320 321 324 327 329 328 327 328 328
207 207 208 211 213 214 215 216 217 218 218 219 217 215 218 216 210 212 217 216 212 212 216 217 218 224 227 228 235 239 238 244 252 255 259 263 262 265 271 276 282 288 292 297 301 304 306 309 313 317 320 320 319 318 317 314 310 306 305 306 309 312 314 314 315 315 317 321 323 323 319 317 321 324
224 225 225 225 224 225 225 224 223 225 227 229 227 223 223 223 219 218 221 221 219 219 221 218 216 220 225 230 237 244 248 252 256 254 254 256 259 265 271 276 281 285 289 293 296 301 304 307 311 315 317 318 319 320 318 313 309 308 309 309 310 310 309 308 308 309 312 314 312 307 304 306 311 316
237 241 242 241 238 237 236 233 231 230 230 231 230 226 226 228 228 226 226 225 226 228 228 224 221 225 232 235 238 244 251 254 255 254 255 256 258 262 268 275 281 286 289 292 295 299 304 307 310 313 316 319 320 318 315 311 307 307 307 306 305 304 303 303 302 303 305 305 302 298 297 301 307 311
244 247 248 249 247 246 245 244 241 237 232 230 229 229 229 230 232 233 233 232 231 231 231 230 232 238 242 244 246 249 253 256 255 255 256 258 259 262 267 273 280 286 290 294 298 302 307 311 316 319 319 320 318 315 311 307 304 304 304 303 302 301 300 300 300 301 302 302 300 298 298 300 306 309
243 246 248 249 248 249 250 250 249 246 240 234 231 231 232 234 235 237 240 241 240 238 236 237 240 244 245 248 254 258 260 260 259 257 256 257 260 264 270 276 284 291 296 301 306 309 311 314 319 320 317 316 313 307 303 302 303 304 304 303 302 302 302 302 302 302 301 300 296 294 295 298 302 305
244 247 249 249 250 251 250 250 251 252 249 244 240 238 238 239 239 239 241 244 245 244 244 246 248 250 251 254 258 261 263 263 262 260 258 259 261 266 274 283 291 295 300 305 310 313 313 313 314 314 312 311 307 301 299 301 303 303 303 302 301 301 302 302 301 300 298 294 291 290 292 294 296 299
250 251 251 250 251 251 249 249 251 252 250 248 247 246 247 247 247 246 245 245 246 246 248 251 253 254 255 256 256 256 257 258 260 261 261 263 266 272 280 288 294 297 299 303 309 312 311 310 311 312 310 309 306 301 301 303 305 305 305 304 303 302 301 299 297 296 293 290 289 289 290 292 294 295
255 255 255 254 253 251 250 248 246 247 249 248 249 250 251 252 252 251 250 249 248 248 249 251 251 252 252 251 251 252 253 257 260 263 265 267 271 278 285 290 295 298 300 303 308 311 310 309 311 311 309 309 307 304 305 307 309 311 311 310 309 306 301 297 293 292 291 290 290 291 293 294 297 299
258 259 260 260 256 252 253 251 249 250 252 253 254 253 250 251 252 252 251 250 249 248 247 246 245 247 248 247 249 253 257 260 263 265 268 272 276 282 287 290 295 298 300 304 309 311 312 311 311 311 311 310 309 309 310 312 314 314 313 312 310 307 303 298 293 290 289 288 289 291 293 295 298 300
256 260 263 262 256 250 253 258 260 257 253 254 257 254 248 248 251 252 250 250 250 248 242 239 239 240 243 245 248 252 256 258 262 265 270 275 280 284 287 290 295 300 302 306 309 312 313 312 311 311 311 310 311 312 313 315 316 315 313 312 312 311 308 303 297 292 288 287 288 289 292 295 297 297
256 260 263 263 260 257 259 263 262 257 250 249 252 252 250 249 249 253 256 254 251 246 237 232 233 233 236 241 244 248 253 258 263 268 272 276 281 285 288 293 300 304 304 304 306 309 311 311 312 312 311 311 311 312 313 315 316 316 316 317 318 317 314 309 304 299 294 291 290 290 291 294 295 295
258 260 262 263 263 263 264 263 260 255 249 246 244 244 249 253 253 257 263 258 248 241 232 226 226 227 231 238 243 249 256 260 266 271 277 281 284 288 293 299 303 304 302 302 305 309 310 310 311 312 312 313 313 312 313 315 317 319 319 321 322 323 321 317 311 306 299 293 290 289 292 295 297 298
260 261 261 262 262 262 262 262 259 253 246 243 243 246 253 261 262 261 257 247 236 230 224 219 219 222 227 236 244 253 260 266 273 278 282 285 287 292 297 299 300 301 301 302 305 308 308 308 309 311 313 314 313 312 313 315 318 320 322 323 324 326 327 324 316 308 298 291 290 292 294 300 305 308
263 261 260 260 260 261 262 261 257 251 245 245 250 257 262 265 264 255 241 231 222 215 212 211 211 215 225 237 247 257 265 272 277 280 283 287 292 296 297 296 298 300 300 300 303 304 306 308 309 310 312 312 311 312 313 314 317 320 322 326 329 331 330 324 314 306 299 295 294 297 300 306 313 317
266 262 259 258 257 258 259 258 254 252 249 249 255 264 266 257 244 235 228 221 211 203 204 207 208 218 234 246 254 262 269 273 276 280 285 290 293 294 294 296 299 300 299 299 301 304 306 308 309 310 311 310 310 310 311 313 317 319 320 324 329 330 328 320 310 302 300 298 298 300 304 311 315 317
266 262 261 260 259 257 257 257 256 255 253 254 257 260 254 233 218 220 220 213 205 202 205 210 218 234 248 257 264 269 271 273 276 280 283 285 288 290 294 297 299 299 298 299 301 304 305 306 306 307 307 306 306 308 310 312 315 317 317 318 321 323 322 315 305 300 301 301 303 306 309 312 313 313
263 262 261 261 261 260 259 259 259 258 256 255 251 243 228 214 212 218 216 208 204 207 212 221 233 245 255 263 268 269 270 273 276 278 280 283 287 291 295 297 297 297 297 298 299 301 302 303 303 301 300 301 302 305 307 308 310 314 316 315 316 319 319 311 302 301 304 306 310 314 316 317 315 314
261 262 262 260 260 260 259 259 260 257 251 243 232 220 213 211 212 212 207 203 207 214 222 233 245 254 262 267 267 268 272 276 278 280 283 286 290 292 292 292 292 291 291 293 296 298 299 299 297 295 293 293 296 299 302 303 304 309 315 316 316 317 317 311 306 308 311 313 315 318 318 318 317 316
259 260 258 256 257 258 257 256 253 243 230 221 216 213 210 208 208 207 206 209 219 228 235 243 250 257 263 267 270 273 276 276 278 281 284 286 286 285 284 283 284 285 288 293 296 297 298 296 293 289 287 287 289 291 295 298 299 303 311 315 314 314 315 314 312 314 317 316 316 316 317 318 319 318
254 254 252 250 253 254 250 243 233 222 215 211 207 205 205 206 208 211 214 221 230 237 240 242 242 247 257 264 268 270 270 272 276 279 281 281 281 281 282 283 285 287 291 295 298 299 298 296 292 288 285 287 288 289 290 292 296 301 307 311 311 311 313 313 312 315 318 317 316 317 320 324 326 323
253 249 246 243 241 236 229 223 216 210 207 205 201 199 201 204 208 212 215 220 223 226 230 233 235 242 251 257 261 264 267 271 274 276 277 278 280 283 287 290 292 293 295 296 298 299 299 298 295 290 287 289 291 291 291 293 297 302 306 307 307 305 306 309 313 319 322 320 319 321 326 333 336 331
250 244 237 231 226 223 220 217 212 206 203 202 201 202 205 208 209 209 209 211 214 219 224 228 231 239 247 252 257 262 266 269 270 272 275 280 285 292 298 303 304 305 304 302 301 300 299 299 298 297 294 293 294 295 297 298 300 303 304 305 306 304 306 313 320 325 326 325 324 326 328 335 341 336
245 238 231 224 219 217 219 219 214 208 204 203 203 204 205 205 201 196 199 207 214 217 220 222 229 238 245 250 255 258 261 264 268 275 283 291 297 304 309 312 314 315 314 313 311 307 305 306 306 303 298 292 290 291 294 297 300 303 305 306 308 309 314 323 327 328 329 328 327 327 327 329 335 334
241 230 223 222 221 219 220 220 216 209 205 204 203 198 193 190 190 194 204 212 211 209 214 220 229 236 242 248 252 253 257 266 278 287 294 301 309 314 315 317 321 321 320 321 322 323 323 323 320 315 310 303 295 286 282 292 304 312 313 312 314 315 318 325 328 329 331 330 328 327 324 322 326 329
243 227 216 214 215 217 219 217 211 205 201 199 195 189 186 187 195 203 206 203 198 201 211 219 227 235 242 247 248 250 261 277 285 292 301 311 317 319 321 324 326 325 326 331 339 342 336 329 327 326 324 320 316 313 310 314 324 325 317 314 317 318 318 323 327 329 331 331 330 329 325 321 323 325
250 235 225 218 214 213 212 207 201 197 192 188 185 187 192 197 197 194 192 192 197 204 213 222 230 235 237 238 241 250 268 281 290 302 311 318 321 322 324 328 328 328 335 349 355 350 338 331 331 332 329 324 320 318 319 327 346 340 315 310 317 319 318 324 330 331 334 335 334 334 331 325 322 319
251 242 237 232 226 217 207 198 193 188 184 185 187 190 193 192 188 186 189 195 203 213 224 231 231 229 227 230 240 256 273 291 305 312 314 318 321 322 324 328 329 332 346 359 355 341 335 332 329 327 322 317 315 315 316 324 343 353 316 304 312 319 320 325 332 335 338 340 339 338 336 329 323 320
253 249 244 239 231 216 199 192 191 189 189 195 197 190 183 182 185 188 191 197 208 222 227 225 222 221 223 232 247 264 287 307 312 311 313 317 319 321 325 328 331 339 354 3 352 335 333 330 324 320 314 308 308 310 311 316 331 346 316 288 304 318 324 330 337 339 339 339 338 340 341 335 325 322
256 252 248 242 227 206 191 191 197 198 197 198 195 187 184 185 186 186 190 202 215 224 224 221 219 221 227 238 257 281 302 310 310 312 316 318 319 322 325 328 336 350 2 6 354 340 336 330 322 317 311 307 307 308 308 313 324 333 297 273 298 325 338 342 341 337 336 336 337 341 346 346 338 331
252 245 243 235 216 198 191 193 196 191 187 187 188 187 184 183 183 185 194 209 219 224 226 224 221 223 232 245 268 291 304 309 312 317 321 320 319 321 327 335 344 353 0 1 354 346 339 330 319 314 311 308 307 308 310 315 322 327 287 266 303 352 356 345 336 331 331 334 338 344 351 352 350 347
249 239 233 222 205 196 192 188 185 187 192 194 192 185 178 177 182 190 200 209 216 220 222 221 221 226 236 250 272 296 308 312 314 321 327 329 331 339 348 349 344 345 354 354 348 343 335 324 318 315 313 311 310 311 314 319 327 346 356 295 358 15 356 338 332 330 332 337 344 353 358 357 355 357
242 233 228 220 207 197 190 183 183 190 194 188 181 178 178 181 186 194 201 206 210 215 218 217 216 218 227 246 281 305 313 315 319 329 340 347 352 354 353 348 345 355 360 348 338 335 329 323 319 317 316 316 314 315 318 323 333 28 12 343 8 4 342 331 332 335 336 344 354 359 1 3 6 5
233 230 229 221 202 187 179 176 176 179 180 178 178 182 186 186 188 194 199 204 210 214 210 204 202 208 226 265 296 310 315 319 329 342 354 358 350 346 353 360 6 10 359 344 339 335 330 329 330 327 324 325 321 318 320 322 306 290 346 360 2 343 328 326 337 342 344 353 1 1 1 7 10 9
218 215 207 193 176 166 163 166 172 179 184 184 184 185 184 182 185 191 197 204 213 212 203 200 216 237 253 280 301 309 314 322 336 348 348 338 338 357 18 19 10 2 352 344 341 338 333 336 342 339 333 332 328 320 316 308 284 300 336 349 336 327 324 331 346 353 356 359 359 358 0 6 11 14
Height
1561 1561 1562 1563 1564 1565 1566 1567 1568 1570 1572 1572 1572 1573 1573 1573 1575 1577 1579 1579 1580 1580 1581 1582 1582 1582 1583 1582 1582 1581 1581 1581 1580 1579 1579 1579 1579 1578 1577 1577 1576 1575 1575 1575 1574 1573 1573 1572 1571 1570 1569 1569 1568 1567 1566 1565 1564 1563 1562 1561 1560 1559 1558 1557 1557 1556 1555 1554 1554 1553 1552 1552 1551 1551
1562 1563 1563 1564 1564 1565 1566 1567 1569 1570 1572 1573 1573 1573 1574 1574 1574 1575 1576 1578 1579 1579 1580 1581 1582 1582 1582 1582 1582 1582 1581 1581 1581 1580 1580 1579 1579 1578 1578 1577 1576 1576 1575 1574 1574 1573 1572 1572 1571 1570 1569 1568 1568 1567 1566 1565 1563 1562 1561 1560 1559 1558 1557 1556 1556 1555 1554 1553 1552 1552 1551 1550 1550 1549
1563 1564 1564 1565 1565 1566 1566 1567 1569 1571 1572 1573 1574 1574 1574 1574 1574 1575 1575 1576 1578 1579 1580 1581 1581 1581 1582 1582 1582 1582 1582 1581 1581 1580 1579 1579 1579 1578 1578 1577 1576 1576 1575 1574 1573 1572 1572 1571 1571 1570 1569 1568 1567 1566 1565 1564 1563 1562 1561 1560 1559 1558 1557 1556 1555 1554 1553 1552 1551 1550 1549 1549 1548 1547
1563 1564 1565 1566 1566 1567 1568 1568 1570 1571 1572 1573 1573 1574 1574 1575 1575 1575 1576 1576 1576 1578 1579 1580 1580 1581 1581 1581 1581 1581 1581 1581 1581 1580 1579 1579 1578 1578 1577 1577 1576 1576 1574 1573 1573 1572 1572 1571 1570 1569 1568 1567 1566 1565 1564 1563 1562 1561 1560 1559 1558 1557 1555 1554 1553 1552 1552 1550 1549 1548 1547 1547 1546 1545
1563 1564 1565 1566 1567 1568 1569 1570 1571 1572 1572 1573 1573 1574 1574 1575 1575 1576 1576 1576 1576 1577 1578 1578 1579 1580 1580 1580 1580 1580 1580 1580 1580 1579 1578 1578 1577 1577 1577 1577 1576 1575 1574 1573 1573 1572 1571 1571 1570 1569 1567 1566 1565 1564 1563 1562 1561 1560 1559 1558 1557 1555 1554 1553 1552 1551 1550 1549 1548 1547 1545 1544 1544 1543
1563 1564 1565 1567 1568 1569 1570 1570 1571 1572 1572 1572 1573 1573 1574 1575 1575 1576 1576 1576 1576 1576 1577 1577 1578 1578 1579 1579 1579 1579 1579 1579 1579 1579 1578 1577 1576 1576 1576 1576 1576 1575 1574 1573 1572 1572 1571 1570 1569 1568 1567 1566 1564 1563 1562 1561 1559 1558 1557 1556 1555 1554 1553 1552 1551 1550 1549 1548 1546 1545 1544 1542 1541 1540
1564 1564 1566 1567 1568 1569 1570 1570 1571 1572 1572 1572 1573 1574 1574 1575 1576 1576 1576 1576 1576 1576 1576 1576 1577 1577 1578 1578 1578 1578 1578 1578 1578 1578 1577 1576 1576 1576 1576 1576 1575 1575 1574 1573 1572 1571 1570 1569 1569 1567 1566 1565 1564 1562 1561 1559 1558 1557 1556 1555 1554 1553 1551 1550 1549 1548 1547 1546 1544 1543 1542 1541 1540 1538
1565 1565 1566 1567 1568 1569 1570 1570 1571 1571 1572 1572 1573 1573 1574 1575 1575 1575 1575 1575 1575 1575 1575 1576 1576 1576 1577 1577 1577 1578 1577 1577 1577 1577 1577 1576 1575 1575 1575 1575 1575 1574 1573 1572 1571 1570 1570 1569 1568 1566 1565 1564 1563 1561 1560 1558 1557 1555 1554 1553 1552 1551 1550 1549 1547 1546 1545 1543 1542 1541 1539 1538 1537 1536
1565 1566 1567 1568 1569 1569 1570 1570 1571 1571 1572 1572 1572 1573 1574 1574 1574 1574 1574 1575 1574 1574 1575 1575 1575 1576 1576 1576 1577 1577 1577 1576 1576 1576 1576 1575 1575 1574 1574 1574 1573 1573 1572 1571 1570 1569 1569 1568 1567 1566 1564 1563 1562 1560 1559 1557 1555 1554 1553 1551 1550 1549 1548 1547 1546 1545 1543 1542 1540 1539 1537 1536 1535 1534
1566 1566 1567 1568 1569 1569 1570 1570 1570 1570 1571 1571 1572 1572 1573 1573 1573 1573 1574 1574 1574 1574 1574 1574 1575 1575 1575 1575 1575 1576 1576 1576 1576 1575 1575 1574 1574 1573 1573 1573 1572 1571 1570 1569 1569 1568 1568 1567 1565 1564 1563 1562 1560 1558 1557 1555 1553 1552 1551 1550 1549 1548 1546 1545 1544 1543 1542 1540 1539 1537 1535 1534 1532 1531
1566 1566 1567 1568 1568 1569 1569 1569 1569 1569 1570 1570 1571 1571 1571 1571 1572 1572 1573 1573 1573 1573 1573 1574 1574 1574 1574 1574 1574 1574 1575 1575 1574 1574 1574 1573 1573 1572 1572 1571 1571 1570 1569 1568 1567 1567 1566 1565 1564 1563 1561 1560 1558 1556 1554 1553 1551 1550 1549 1548 1546 1545 1544 1543 1542 1541 1540 1539 1537 1536 1534 1532 1530 1529
1566 1566 1567 1567 1567 1568 1568 1568 1568 1569 1569 1569 1570 1570 1570 1570 1570 1571 1571 1571 1571 1572 1572 1572 1573 1573 1573 1573 1573 1573 1573 1573 1572 1572 1572 1572 1572 1571 1571 1570 1569 1569 1568 1567 1566 1565 1564 1563 1562 1561 1559 1557 1555 1554 1553 1551 1549 1548 1547 1546 1544 1543 1542 1541 1540 1539 1538 1537 1535 1534 1532 1530 1528 1527
1565 1566 1566 1566 1567 1567 1567 1568 1568 1568 1568 1568 1568 1568 1569 1569 1569 1569 1569 1569 1570 1570 1570 1570 1571 1571 1571 1571 1571 1571 1571 1571 1570 1570 1570 1570 1570 1569 1569 1568 1568 1567 1566 1565 1564 1563 1561 1561 1560 1558 1556 1555 1553 1552 1550 1549 1547 1546 1545 1544 1543 1542 1541 1539 1538 1537 1536 1534 1533 1531 1529 1528 1527 1525
1563 1564 1565 1565 1566 1566 1566 1566 1567 1567 1567 1567 1567 1567 1567 1567 1568 1568 1568 1568 1568 1568 1568 1568 1568 1568 1569 1569 1570 1569 1569 1569 1568 1568 1568 1568 1568 1567 1567 1566 1565 1564 1563 1563 1562 1562 1559 1558 1558 1556 1554 1553 1552 1550 1548 1547 1545 1544 1543 1542 1541 1540 1538 1537 1536 1535 1533 1532 1530 1528 1527 1526 1525 1524
1561 1562 1562 1563 1563 1564 1564 1565 1565 1565 1565 1565 1565 1565 1566 1566 1566 1566 1566 1566 1566 1566 1566 1566 1567 1567 1567 1567 1567 1567 1567 1567 1566 1566 1566 1566 1565 1565 1565 1564 1563 1562 1560 1560 1560 1559 1557 1555 1554 1553 1552 1551 1550 1548 1546 1545 1544 1543 1542 1540 1539 1537 1536 1535 1533 1532 1531 1529 1527 1526 1525 1524 1523 1522
1560 1560 1560 1561 1561 1561 1562 1562 1563 1563 1563 1563 1563 1563 1563 1563 1563 1564 1564 1564 1564 1564 1564 1564 1565 1565 1565 1564 1565 1565 1565 1565 1564 1564 1564 1563 1563 1562 1562 1561 1561 1559 1557 1556 1556 1556 1554 1553 1552 1551 1550 1549 1548 1546 1544 1543 1542 1541 1540 1538 1536 1535 1533 1532 1531 1529 1528 1527 1525 1524 1523 1522 1521 1520
1558 1559 1559 1559 1559 1559 1560 1560 1560 1561 1560 1560 1560 1560 1561 1561 1561 1561 1561 1561 1561 1561 1561 1562 1562 1562 1562 1562 1562 1562 1562 1562 1562 1562 1561 1561 1560 1560 1559 1559 1558 1556 1554 1553 1553 1552 1551 1550 1550 1549 1548 1547 1547 1544 1542 1541 1540 1539 1537 1536 1534 1532 1530 1529 1528 1527 1525 1524 1522 1521 1520 1519 1519 1518
1556 1556 1556 1556 1556 1557 1557 1558 1558 1558 1558 1557 1557 1557 1558 1558 1558 1558 1558 1558 1558 1558 1558 1559 1559 1559 1560 1560 1560 1560 1560 1560 1560 1559 1559 1558 1557 1557 1556 1556 1555 1553 1552 1551 1550 1550 1549 1548 1547 1547 1546 1546 1545 1542 1540 1539 1538 1536 1535 1533 1531 1530 1528 1526 1525 1524 1522 1521 1520 1519 1518 1516 1516 1515
1553 1553 1553 1553 1554 1554 1554 1554 1554 1554 1554 1554 1554 1554 1554 1554 1554 1555 1555 1555 1555 1555 1555 1556 1556 1556 1557 1557 1557 1557 1557 1557 1557 1556 1556 1555 1554 1554 1554 1553 1552 1551 1549 1548 1548 1548 1546 1545 1544 1544 1544 1543 1542 1540 1538 1537 1536 1533 1532 1530 1529 1527 1525 1524 1522 1521 1519 1518 1517 1516 1515 1513 1513 1512
1549 1550 1550 1550 1550 1550 1550 1550 1551 1550 1550 1551 1551 1550 1550 1551 1551 1551 1552 1551 1552 1552 1552 1553 1553 1554 1554 1554 1554 1554 1554 1554 1554 1553 1553 1552 1551 1551 1551 1550 1550 1548 1546 1546 1546 1545 1544 1542 1542 1541 1541 1540 1539 1538 1536 1535 1533 1531 1529 1527 1526 1524 1522 1520 1519 1517 1516 1515 1514 1513 1512 1510 1509 1509
1546 1546 1546 1545 1544 1545 1546 1546 1547 1547 1547 1548 1548 1547 1547 1547 1547 1548 1548 1548 1549 1549 1549 1549 1550 1550 1551 1551 1551 1551 1551 1551 1550 1550 1550 1549 1549 1549 1548 1547 1547 1546 1545 1544 1543 1542 1541 1540 1539 1538 1537 1537 1536 1534 1533 1532 1530 1528 1526 1524 1522 1520 1518 1516 1515 1514 1513 1512 1511 1510 1508 1507 1506 1505
1542 1542 1541 1541 1540 1541 1542 1542 1543 1543 1543 1544 1544 1544 1544 1544 1544 1544 1545 1546 1546 1546 1546 1546 1546 1547 1547 1547 1547 1548 1548 1548 1548 1547 1547 1547 1546 1546 1545 1544 1544 1544 1542 1541 1541 1540 1539 1538 1536 1534 1533 1533 1532 1531 1530 1528 1527 1525 1523 1521 1519 1517 1515 1513 1512 1511 1510 1509 1508 1507 1505 1504 1503 1502
1537 1537 1537 1537 1536 1537 1538 1538 1539 1540 1539 1539 1540 1541 1541 1541 1541 1541 1542 1543 1544 1543 1543 1544 1544 1544 1544 1544 1545 1545 1546 1546 1545 1545 1545 1544 1544 1543 1542 1542 1542 1542 1540 1539 1538 1538 1536 1535 1534 1532 1530 1529 1529 1528 1526 1525 1524 1522 1520 1518 1517 1515 1513 1511 1510 1509 1508 1507 1505 1504 1503 1502 1500 1499
1532 1532 1532 1532 1532 1532 1533 1534 1535 1535 1536 1535 1536 1536 1537 1537 1538 1538 1539 1540 1541 1541 1541 1541 1541 1541 1541 1542 1543 1543 1543 1543 1543 1543 1542 1542 1541 1541 1540 1540 1540 1539 1538 1537 1536 1535 1534 1533 1532 1531 1529 1527 1525 1523 1522 1522 1521 1519 1517 1516 1515 1513 1512 1510 1509 1508 1506 1505 1504 1502 1501 1500 1498 1497
1527 1527 1527 1527 1528 1528 1529 1530 1531 1531 1532 1532 1531 1531 1533 1535 1536 1536 1536 1538 1538 1539 1539 1539 1538 1539 1539 1540 1541 1541 1541 1541 1541 1540 1540 1540 1539 1539 1539 1538 1538 1537 1536 1534 1533 1532 1531 1530 1529 1528 1527 1525 1522 1520 1519 1518 1518 1517 1515 1514 1513 1512 1510 1509 1507 1506 1505 1504 1502 1501 1499 1498 1497 1495
1522 1522 1523 1523 1524 1524 1525 1526 1526 1527 1528 1528 1527 1528 1530 1532 1534 1534 1535 1536 1536 1537 1537 1536 1536 1537 1538 1539 1539 1539 1539 1539 1539 1539 1539 1539 1538 1538 1537 1537 1536 1535 1533 1532 1530 1529 1528 1528 1526 1525 1523 1521 1520 1518 1516 1515 1515 1515 1514 1513 1512 1510 1509 1507 1506 1505 1503 1502 1500 1499 1498 1496 1495 1494
1518 1518 1518 1519 1520 1520 1521 1522 1522 1523 1524 1524 1524 1525 1527 1528 1530 1531 1533 1534 1534 1535 1535 1534 1534 1535 1536 1537 1537 1537 1537 1537 1537 1538 1538 1538 1537 1537 1536 1535 1534 1533 1531 1529 1528 1527 1526 1525 1524 1522 1520 1519 1517 1515 1514 1513 1513 1512 1512 1511 1510 1509 1507 1506 1504 1503 1501 1500 1498 1497 1496 1494 1493 1492
1514 1514 1514 1515 1515 1516 1516 1517 1518 1518 1518 1519 1520 1522 1524 1525 1526 1528 1530 1531 1532 1532 1532 1532 1532 1533 1534 1535 1535 1536 1536 1536 1536 1537 1537 1536 1536 1535 1534 1533 1532 1530 1529 1527 1526 1525 1523 1522 1521 1519 1518 1517 1515 1514 1512 1511 1510 1510 1509 1508 1507 1507 1506 1504 1502 1501 1499 1498 1497 1495 1493 1492 1490 1489
1510 1510 1510 1510 1510 1511 1511 1512 1513 1513 1513 1514 1516 1518 1520 1522 1523 1525 1527 1529 1530 1530 1530 1530 1530 1531 1532 1533 1534 1534 1534 1535 1535 1535 1535 1534 1533 1533 1532 1531 1530 1529 1527 1526 1524 1522 1521 1519 1518 1517 1516 1515 1514 1512 1511 1510 1509 1508 1508 1506 1505 1504 1504 1502 1501 1499 1498 1496 1495 1493 1491 1489 1488 1486
1506 1506 1506 1506 1506 1506 1507 1508 1508 1509 1510 1511 1513 1515 1517 1520 1521 1522 1524 1526 1527 1528 1528 1528 1529 1529 1530 1531 1532 1532 1532 1533 1533 1533 1533 1532 1531 1531 1531 1530 1529 1527 1525 1523 1521 1519 1518 1517 1516 1514 1513 1513 1512 1511 1510 1508 1507 1507 1507 1505 1503 1502 1501 1500 1499 1498 1496 1494 1493 1491 1489 1488 1485 1483
1502 1502 1502 1502 1502 1503 1504 1505 1506 1507 1508 1509 1511 1513 1516 1518 1519 1521 1522 1523 1524 1525 1526 1527 1527 1528 1528 1529 1530 1531 1531 1531 1532 1532 1531 1530 1530 1529 1528 1527 1526 1524 1523 1520 1518 1517 1515 1514 1513 1512 1511 1510 1509 1509 1508 1507 1505 1505 1505 1504 1502 1500 1499 1498 1497 1496 1494 1492 1490 1489 1487 1486 1484 1481
1497 1497 1498 1499 1499 1500 1501 1503 1504 1505 1506 1508 1510 1512 1514 1515 1517 1519 1520 1520 1521 1523 1524 1525 1526 1526 1527 1528 1529 1529 1530 1530 1530 1530 1529 1529 1527 1526 1525 1524 1523 1521 1520 1518 1516 1515 1513 1512 1511 1510 1509 1508 1507 1506 1506 1505 1505 1504 1503 1502 1501 1499 1498 1496 1495 1494 1492 1490 1488 1487 1486 1484 1482 1479
1491 1491 1492 1493 1495 1497 1499 1500 1502 1503 1505 1506 1508 1509 1511 1513 1515 1517 1518 1518 1520 1522 1523 1524 1524 1524 1525 1526 1527 1528 1528 1528 1528 1528 1527 1527 1525 1524 1523 1521 1520 1518 1517 1515 1514 1513 1512 1511 1509 1509 1508 1507 1506 1505 1504 1503 1503 1503 1502 1500 1499 1497 1496 1495 1493 1492 1490 1488 1486 1485 1484 1483 1481 1479
1486 1485 1486 1488 1491 1493 1496 1498 1499 1501 1502 1504 1505 1507 1509 1512 1513 1515 1516 1517 1519 1520 1521 1522 1522 1523 1524 1525 1526 1526 1526 1526 1526 1526 1525 1524 1523 1522 1521 1519 1517 1515 1514 1513 1512 1511 1510 1509 1508 1507 1506 1506 1505 1504 1504 1503 1502 1501 1500 1499 1497 1495 1494 1494 1492 1491 1489 1487 1485 1483 1482 1481 1480 1478
1484 1483 1483 1485 1487 1490 1492 1494 1495 1497 1499 1501 1503 1505 1508 1510 1512 1513 1515 1516 1517 1519 1519 1520 1521 1522 1523 1524 1525 1525 1525 1525 1525 1524 1523 1522 1521 1520 1518 1517 1515 1513 1512 1511 1510 1509 1508 1507 1506 1505 1504 1503 1503 1503 1504 1502 1501 1499 1498 1496 1495 1494 1493 1492 1491 1490 1488 1487 1485 1482 1480 1479 1478 1477
1481 1482 1482 1483 1484 1486 1488 1489 1491 1493 1495 1498 1501 1504 1506 1508 1510 1512 1514 1516 1517 1517 1518 1519 1520 1521 1522 1523 1523 1523 1523 1523 1523 1522 1522 1521 1519 1518 1517 1515 1513 1512 1511 1510 1509 1508 1507 1507 1506 1504 1503 1502 1501 1501 1502 1501 1500 1498 1496 1494 1494 1493 1492 1491 1490 1489 1488 1486 1484 1482 1480 1477 1475 1474
1480 1482 1483 1484 1485 1485 1486 1488 1490 1493 1494 1496 1499 1502 1504 1506 1508 1511 1514 1515 1516 1516 1517 1517 1519 1520 1521 1522 1522 1522 1522 1522 1521 1521 1520 1519 1518 1516 1515 1513 1512 1511 1510 1509 1508 1508 1507 1506 1506 1505 1503 1502 1501 1499 1498 1499 1499 1497 1495 1493 1492 1492 1491 1490 1489 1488 1487 1485 1483 1481 1479 1476 1473 1472
1479 1481 1483 1484 1485 1487 1489 1491 1493 1494 1496 1497 1498 1500 1502 1504 1508 1511 1513 1514 1514 1515 1516 1517 1518 1519 1520 1520 1520 1520 1520 1520 1520 1519 1518 1517 1516 1514 1513 1512 1511 1510 1509 1508 1508 1508 1507 1506 1505 1505 1504 1502 1501 1499 1497 1496 1496 1496 1494 1492 1491 1491 1490 1489 1488 1487 1485 1484 1482 1480 1478 1475 1472 1470
1477 1478 1480 1481 1483 1485 1489 1493 1494 1494 1495 1496 1497 1498 1500 1504 1507 1510 1511 1512 1513 1515 1516 1517 1518 1519 1519 1519 1519 1519 1519 1519 1518 1518 1517 1515 1514 1513 1511 1511 1510 1509 1508 1508 1508 1507 1507 1506 1505 1504 1503 1502 1500 1498 1497 1495 1494 1494 1493 1491 1490 1490 1490 1489 1488 1486 1484 1482 1480 1478 1476 1474 1472 1470
1476 1476 1477 1479 1481 1483 1487 1491 1493 1494 1494 1494 1496 1498 1502 1505 1507 1508 1509 1511 1513 1515 1516 1517 1517 1517 1517 1518 1518 1518 1518 1518 1517 1516 1515 1514 1512 1511 1510 1509 1509 1508 1508 1507 1507 1507 1506 1506 1505 1503 1502 1501 1499 1498 1496 1494 1493 1493 1492 1491 1490 1490 1490 1489 1487 1485 1483 1481 1479 1477 1475 1474 1472 1470
1474 1475 1475 1477 1479 1481 1484 1488 1492 1493 1494 1494 1496 1499 1502 1504 1505 1506 1508 1511 1513 1514 1515 1516 1516 1516 1516 1516 1516 1517 1517 1516 1516 1515 1514 1513 1511 1510 1509 1509 1508 1508 1507 1507 1507 1506 1506 1505 1504 1503 1501 1499 1498 1496 1495 1494 1492 1492 1491 1490 1490 1490 1489 1488 1487 1484 1482 1480 1478 1476 1475 1473 1472 1470
1473 1474 1474 1475 1477 1480 1482 1485 1489 1492 1494 1495 1497 1499 1501 1503 1504 1505 1508 1511 1513 1514 1514 1515 1515 1515 1514 1515 1515 1515 1516 1515 1515 1514 1513 1511 1510 1510 1509 1508 1508 1507 1507 1507 1506 1506 1506 1505 1503 1502 1500 1498 1497 1495 1494 1492 1491 1491 1490 1490 1490 1489 1488 1487 1486 1484 1482 1480 1478 1476 1475 1473 1471 1470
1472 1473 1474 1475 1477 1479 1481 1483 1486 1490 1493 1496 1498 1499 1500 1501 1503 1505 1508 1510 1512 1513 1513 1513 1513 1513 1513 1514 1514 1515 1515 1515 1514 1513 1512 1511 1510 1509 1509 1508 1507 1507 1507 1507 1506 1506 1505 1504 1503 1501 1499 1497 1496 1494 1493 1492 1491 1491 1490 1490 1489 1489 1488 1486 1485 1483 1481 1480 1478 1476 1475 1473 1471 1470
1471 1473 1474 1475 1476 1478 1480 1483 1486 1490 1493 1496 1497 1499 1500 1501 1503 1505 1507 1509 1511 1512 1512 1512 1511 1511 1512 1513 1514 1514 1514 1514 1513 1512 1511 1510 1510 1509 1508 1508 1507 1507 1507 1507 1506 1506 1505 1503 1502 1500 1498 1497 1495 1493 1492 1491 1491 1490 1490 1489 1489 1488 1487 1486 1484 1482 1481 1479 1478 1477 1476 1474 1472 1471
1471 1472 1474 1475 1476 1479 1481 1484 1487 1490 1493 1495 1496 1498 1499 1501 1502 1504 1506 1508 1509 1510 1510 1510 1510 1510 1511 1512 1513 1513 1513 1513 1512 1512 1511 1510 1509 1509 1508 1508 1508 1508 1508 1507 1506 1505 1504 1503 1501 1499 1498 1496 1494 1493 1491 1491 1491 1490 1490 1489 1488 1487 1486 1485 1484 1482 1481 1479 1478 1477 1476 1475 1473 1471